Tracking 23114 objects as of 14-May-2021
HD Live streaming from Space Station
objects crossing your sky now

BREEZE-M R/B

Track BREEZE-M R/B now!


NORAD ID: 34711
Int'l Code: 2009-016B
Perigee: 3,801.7 km
Apogee: 33,344.6 km
Inclination: 21.0 °
Period: 653.4 minutes
Semi major axis: 24944 km
RCS: 9.3076 m2 (large)
Launch date: April 3, 2009
Source: Commonwealth of Independent States (former USSR) (CIS)
Launch site: TYURATAM MISSILE AND SPACE COMPLEX (TTMTR)

Note: This is a ROCKET BODY
aabbcc
Your satellite tracking list
Your tracking list is empty




NASA's NSSDC Master Catalog

Two Line Element Set (TLE):
1 34711U 09016B   21131.64927599 -.00000159  00000-0  00000-0 0  9997
2 34711  20.9832 310.0662 5921815  81.1347 338.0232  2.20369195105481
Source of the keplerian elements: AFSPC